When you browse on this site, cookies collect data to enhance your experience and personalize the content and advertising you see.
Visit our Privacy Policy to learn more. By continuing to use the site, you agree to this use of cookies and data.
  • In United Kingdom
  • List of Countries
  • For 7 days
  • Water Temperature
  • Weather Map
  • Weather Widgets
  • user-avatar
    Login

    Hourly Weather Sozopol

    Today, 18 October, Friday

    Time Temperature Precipitation Wind Pressure Humidity
    00:00 +13°C° 0 mm 0 mps 760 mmHg 90%
    01:00 +14°C° 0 mm 1 mps 760 mmHg 89%
    02:00 +14°C° 0 mm 1 mps 760 mmHg 87%
    03:00 +14°C° 0 mm 1 mps 760 mmHg 87%
    04:00 +14°C° 0 mm 1 mps 760 mmHg 86%
    05:00 +13°C° 0 mm 1 mps 760 mmHg 86%
    06:00 +14°C° 0 mm 1 mps 760 mmHg 82%
    07:00 +15°C° 0 mm 1 mps 760 mmHg 78%
    08:00 +16°C° 0 mm 0 mps 760 mmHg 75%
    09:00 +20°C° 0 mm 1 mps 760 mmHg 68%
    10:00 +21°C° 0 mm 1 mps 760 mmHg 62%
    11:00 +23°C° 0 mm 1 mps 761 mmHg 55%
    12:00 +24°C° 0 mm 1 mps 760 mmHg 54%
    13:00 +24°C° 0 mm 1 mps 760 mmHg 53%
    14:00 +25°C° 0 mm 2 mps 759 mmHg 52%
    15:00 +23°C° 0 mm 2 mps 759 mmHg 61%
    16:00 +20°C° 0 mm 2 mps 759 mmHg 70%
    17:00 +19°C° 0 mm 2 mps 759 mmHg 78%
    18:00 +18°C° 0 mm 2 mps 759 mmHg 82%
    19:00 +17°C° 0 mm 2 mps 759 mmHg 86%
    20:00 +16°C° 0 mm 2 mps 759 mmHg 90%
    21:00 +16°C° 0 mm 1 mps 760 mmHg 89%
    22:00 +16°C° 0 mm 1 mps 760 mmHg 88%
    23:00 +15°C° 0 mm 1 mps 760 mmHg 87%

    Tomorrow, 19 October, Saturday

    Time Temperature Precipitation Wind Pressure Humidity
    00:00 +14°C° 0 mm 0 mps 760 mmHg 87%
    01:00 +14°C° 0 mm 0 mps 760 mmHg 86%
    02:00 +14°C° 0 mm 0 mps 760 mmHg 86%
    03:00 +14°C° 0 mm 0 mps 760 mmHg 85%
    04:00 +14°C° 0 mm 0 mps 760 mmHg 85%
    05:00 +13°C° 0 mm 0 mps 760 mmHg 85%
    06:00 +14°C° 0 mm 0 mps 760 mmHg 81%
    07:00 +15°C° 0 mm 0 mps 760 mmHg 77%
    08:00 +16°C° 0 mm 0 mps 760 mmHg 73%
    09:00 +20°C° 0 mm 1 mps 760 mmHg 66%
    10:00 +22°C° 0 mm 1 mps 761 mmHg 59%
    11:00 +24°C° 0 mm 1 mps 761 mmHg 53%
    12:00 +24°C° 0 mm 2 mps 760 mmHg 52%
    13:00 +25°C° 0 mm 2 mps 760 mmHg 52%
    14:00 +25°C° 0 mm 2 mps 760 mmHg 52%
    15:00 +23°C° 0 mm 2 mps 760 mmHg 60%
    16:00 +21°C° 0 mm 3 mps 760 mmHg 67%
    17:00 +19°C° 0 mm 3 mps 760 mmHg 75%
    18:00 +18°C° 0 mm 2 mps 760 mmHg 79%
    19:00 +17°C° 0 mm 2 mps 760 mmHg 83%
    20:00 +16°C° 0 mm 2 mps 761 mmHg 87%
    21:00 +16°C° 0 mm 2 mps 761 mmHg 87%
    22:00 +16°C° 0 mm 2 mps 761 mmHg 87%
    23:00 +15°C° 0 mm 1 mps 761 mmHg 86%

    Day after tomorrow, 20 October, Sunday

    Time Temperature Precipitation Wind Pressure Humidity
    00:00 +15°C° 0 mm 1 mps 761 mmHg 86%
    01:00 +15°C° 0 mm 1 mps 761 mmHg 85%
    02:00 +14°C° 0 mm 0 mps 761 mmHg 85%
    03:00 +14°C° 0 mm 0 mps 761 mmHg 85%
    04:00 +14°C° 0 mm 0 mps 761 mmHg 85%
    05:00 +13°C° 0 mm 0 mps 761 mmHg 85%
    06:00 +14°C° 0 mm 0 mps 761 mmHg 81%
    07:00 +15°C° 0 mm 0 mps 761 mmHg 77%
    08:00 +16°C° 0 mm 0 mps 762 mmHg 74%
    09:00 +20°C° 0 mm 1 mps 762 mmHg 67%
    10:00 +22°C° 0 mm 1 mps 762 mmHg 59%
    11:00 +23°C° 0 mm 2 mps 762 mmHg 52%
    12:00 +24°C° 0 mm 2 mps 762 mmHg 52%
    13:00 +24°C° 0 mm 2 mps 762 mmHg 53%
    14:00 +24°C° 0 mm 3 mps 761 mmHg 53%
    15:00 +22°C° 0 mm 3 mps 761 mmHg 61%
    16:00 +20°C° 0 mm 2 mps 761 mmHg 69%
    17:00 +19°C° 0 mm 2 mps 761 mmHg 78%
    18:00 +18°C° 0 mm 2 mps 761 mmHg 82%
    19:00 +17°C° 0 mm 2 mps 762 mmHg 86%
    20:00 +16°C° 0 mm 2 mps 762 mmHg 90%
    21:00 +15°C° 0 mm 1 mps 762 mmHg 90%
    22:00 +15°C° 0 mm 1 mps 762 mmHg 90%
    23:00 +15°C° 0 mm 1 mps 762 mmHg 90%

    21 October, Monday

    Time Temperature Precipitation Wind Pressure Humidity
    00:00 +15°C° 0 mm 1 mps 762 mmHg 90%
    01:00 +14°C° 0 mm 1 mps 762 mmHg 90%
    02:00 +13°C° 0 mm 0 mps 762 mmHg 90%
    03:00 +14°C° 0 mm 1 mps 762 mmHg 89%
    04:00 +14°C° 0 mm 1 mps 762 mmHg 89%
    05:00 +14°C° 0 mm 1 mps 762 mmHg 88%
    06:00 +15°C° 0 mm 1 mps 762 mmHg 85%
    07:00 +16°C° 0 mm 1 mps 762 mmHg 81%
    08:00 +18°C° 0 mm 1 mps 762 mmHg 78%
    09:00 +19°C° 0 mm 1 mps 762 mmHg 70%
    10:00 +20°C° 0 mm 2 mps 762 mmHg 63%
    11:00 +23°C° 0 mm 2 mps 763 mmHg 56%
    12:00 +23°C° 0 mm 2 mps 762 mmHg 56%
    13:00 +24°C° 0 mm 2 mps 762 mmHg 55%
    14:00 +24°C° 0 mm 3 mps 762 mmHg 55%
    15:00 +21°C° 0 mm 2 mps 762 mmHg 62%
    16:00 +20°C° 0 mm 2 mps 762 mmHg 69%
    17:00 +19°C° 0 mm 2 mps 762 mmHg 76%
    18:00 +18°C° 0 mm 2 mps 762 mmHg 79%
    19:00 +17°C° 0 mm 2 mps 762 mmHg 83%
    20:00 +16°C° 0 mm 1 mps 762 mmHg 87%
    21:00 +15°C° 0 mm 1 mps 762 mmHg 87%
    22:00 +15°C° 0 mm 1 mps 762 mmHg 87%
    23:00 +15°C° 0 mm 1 mps 762 mmHg 87%

    22 October, Tuesday

    Time Temperature Precipitation Wind Pressure Humidity
    00:00 +15°C° 0 mm 1 mps 762 mmHg 87%
    01:00 +15°C° 0 mm 1 mps 762 mmHg 87%
    02:00 +14°C° 0 mm 1 mps 762 mmHg 87%
    03:00 +14°C° 0 mm 1 mps 762 mmHg 87%
    04:00 +14°C° 0 mm 1 mps 762 mmHg 87%
    05:00 +14°C° 0 mm 1 mps 762 mmHg 87%
    06:00 +15°C° 0 mm 1 mps 762 mmHg 83%
    07:00 +16°C° 0 mm 1 mps 762 mmHg 80%
    08:00 +16°C° 0 mm 1 mps 762 mmHg 76%
    09:00 +18°C° 0 mm 2 mps 762 mmHg 67%
    10:00 +20°C° 0 mm 2 mps 762 mmHg 59%
    11:00 +23°C° 0 mm 2 mps 762 mmHg 50%
    12:00 +24°C° 0 mm 2 mps 762 mmHg 48%
    13:00 +24°C° 0 mm 3 mps 762 mmHg 45%
    14:00 +24°C° 0 mm 3 mps 761 mmHg 43%
    15:00 +22°C° 0 mm 3 mps 761 mmHg 51%
    16:00 +20°C° 0 mm 3 mps 761 mmHg 59%
    17:00 +18°C° 0 mm 2 mps 761 mmHg 66%
    18:00 +18°C° 0 mm 2 mps 761 mmHg 70%
    19:00 +17°C° 0 mm 2 mps 761 mmHg 75%
    20:00 +16°C° 0 mm 2 mps 762 mmHg 79%
    21:00 +15°C° 0 mm 2 mps 762 mmHg 80%
    22:00 +15°C° 0 mm 2 mps 762 mmHg 82%
    23:00 +15°C° 0 mm 2 mps 762 mmHg 84%

    23 October, Wednesday

    Time Temperature Precipitation Wind Pressure Humidity
    00:00 +15°C° 0 mm 2 mps 762 mmHg 84%
    01:00 +15°C° 0 mm 2 mps 762 mmHg 85%
    02:00 +14°C° 0 mm 2 mps 762 mmHg 85%
    03:00 +14°C° 0 mm 2 mps 762 mmHg 85%
    04:00 +14°C° 0 mm 2 mps 762 mmHg 84%
    05:00 +14°C° 0 mm 2 mps 762 mmHg 84%
    06:00 +14°C° 0 mm 3 mps 762 mmHg 80%
    07:00 +14°C° 0 mm 3 mps 762 mmHg 76%
    08:00 +16°C° 0 mm 3 mps 762 mmHg 72%
    09:00 +18°C° 0 mm 3 mps 762 mmHg 64%
    10:00 +20°C° 0 mm 4 mps 762 mmHg 55%
    11:00 +21°C° 0 mm 5 mps 763 mmHg 47%
    12:00 +22°C° 0 mm 5 mps 762 mmHg 47%
    13:00 +22°C° 0 mm 5 mps 762 mmHg 46%
    14:00 +22°C° 0 mm 5 mps 762 mmHg 46%
    15:00 +21°C° 0 mm 5 mps 762 mmHg 53%
    16:00 +19°C° 0 mm 4 mps 762 mmHg 61%
    17:00 +18°C° 0 mm 4 mps 762 mmHg 69%
    18:00 +17°C° 0 mm 3 mps 762 mmHg 74%
    19:00 +16°C° 0 mm 3 mps 762 mmHg 79%
    20:00 +14°C° 0 mm 3 mps 762 mmHg 84%
    21:00 +14°C° 0 mm 3 mps 762 mmHg 84%
    22:00 +15°C° 0 mm 2 mps 763 mmHg 85%
    23:00 +15°C° 0 mm 2 mps 763 mmHg 85%
    Show more